This demonstration page uses our WeatherBlox Daily Observations layout. Learn more.

Left ArrowRight Arrow

39.12711, -84.51439

Hourly Observations for September 7, 2016

Temp ( °F °C ) Dew Point ( °F °C ) Humidity (%) Winds ( mph kmh ) Pressure ( in mb ) Visibility ( mi km ) Precip ( " mm )
12:53 am 00:53 Clear 71 21.7 70 21.1 96 96 Calm 30.13 1020 8 13 0.00 0.00
1:53 am 01:53 Clear 70 21.1 70 21.1 100 100 Calm 30.13 1020 7 11 0.00 0.00
2:53 am 02:53 Clear with Mist and Fog 68 20 68 20 100 100 Calm 30.13 1020 5 8 0.00 0.00
3:53 am 03:53 Clear with Mist and Fog 68 20 68 20 100 100 Calm 30.13 1020 3 5 0.00 0.00
4:28 am 04:28 Clear with Mist and Fog 66 19 66 19 100 100 Calm 30.12 1020 1 1 0.00 0.00
4:49 am 04:49 Clear with Mist and Fog 66 19 66 19 100 100 Calm 30.12 1020 2 2 0.00 0.00
4:53 am 04:53 Clear with Mist and Fog 67 19.4 67 19.4 100 100 Calm 30.13 1020 1 2 0.00 0.00
5:00 am 05:00 Clear with Fog 66 19 66 19 100 100 Calm 30.12 1020 1 1 0.00 0.00
5:09 am 05:09 Clear with Fog 67 19.4 67 19.4 100 100 Calm 30.12 1020 0 0 0.00 0.00
5:37 am 05:37 Clear with Mist and Fog 67 19.4 67 19.4 100 100 Calm 30.12 1020 1 2 0.00 0.00
5:40 am 05:40 Clear with Mist and Fog 66 19 66 19 100 100 Calm 30.12 1020 3 5 0.00 0.00
5:53 am 05:53 Clear with Mist and Fog 67 19.4 67 19.4 100 100 Calm 30.13 1020 5 8 0.00 0.00
6:53 am 06:53 Clear with Mist and Fog 66 18.9 66 18.9 100 100 Calm 30.14 1021 6 10 0.00 0.00
7:53 am 07:53 Sunny 67 19.4 67 19.4 100 100 Calm 30.16 1021 10 16 0.00 0.00
8:53 am 08:53 Sunny 73 22.8 71 21.7 94 94 Calm 30.17 1022 10 16 0.00 0.00
9:53 am 09:53 Sunny 79 26.1 72 22.2 79 79 S 6 9 30.16 1021 10 16 0.00 0.00
10:53 am 10:53 Sunny 83 28.3 71 21.7 67 67 WSW 9 15 30.16 1021 10 16 0.00 0.00
11:53 am 11:53 Mostly Sunny 86 30 72 22.2 63 63 WSW 12 19 30.14 1021 10 16 0.00 0.00
12:53 pm 12:53 Mostly Cloudy 87 30.6 74 23.3 65 65 SSW 8 13 30.13 1020 10 16 0.00 0.00
1:53 pm 13:53 Mostly Cloudy 88 31.1 73 22.8 61 61 S 8 13 30.11 1020 10 16 0.00 0.00
2:53 pm 14:53 Mostly Cloudy 89 31.7 73 22.8 59 59 WSW 12 19 30.09 1019 10 16 0.00 0.00
3:53 pm 15:53 Partly Cloudy 86 30 73 22.8 65 65 SW 6 9 30.07 1018 10 16 0.00 0.00
4:53 pm 16:53 Mostly Cloudy 88 31.1 72 22.2 59 59 WSW 10 17 30.06 1018 10 16 0.00 0.00
5:53 pm 17:53 Mostly Sunny 88 31.1 70 21.1 55 55 SW 14 22 30.05 1018 10 16 0.00 0.00
6:53 pm 18:53 Mostly Sunny 86 30 68 20 55 55 SW 8 13 30.04 1017 10 16 0.00 0.00
7:53 pm 19:53 Mostly Sunny 78 25.6 70 21.1 76 76 S 7 11 30.04 1017 10 16 0.00 0.00
8:53 pm 20:53 Clear 76 24.4 71 21.7 85 85 Calm 30.05 1018 10 16 0.00 0.00
9:53 pm 21:53 Clear 75 23.9 71 21.7 88 88 Calm 30.04 1017 10 16 0.00 0.00
10:53 pm 22:53 Clear 74 23.3 70 21.1 88 88 SSW 3 6 30.04 1017 10 16 0.00 0.00
11:53 pm 23:53 Clear 74 23.3 70 21.1 88 88 Calm 30.03 1017 10 16 0.00 0.00

Powered by AerisWeather